TimeCST,TemperatureF,Dew PointF,Humidity,Sea Level PressureIn,VisibilityMPH,Wind Direction,Wind SpeedMPH,Gust SpeedMPH,PrecipitationIn,Events,Conditions,WindDirDegrees,DateUTC
12:58 AM,43.0,37.9,82,30.27,10.0,NNE,3.5,-,N/A,,Clear,20,2013-12-01 06:58:00
1:58 AM,45.0,40.1,83,30.27,10.0,North,1.2,-,N/A,,Mostly Cloudy,10,2013-12-01 07:58:00
2:58 AM,43.3,38.8,84,30.25,10.0,North,2.3,-,N/A,,Mostly Cloudy,360,2013-12-01 08:58:00
3:58 AM,44.4,39.0,81,30.25,10.0,NNW,2.3,-,N/A,,Mostly Cloudy,340,2013-12-01 09:58:00
4:58 AM,44.6,38.8,80,30.26,10.0,NNE,3.5,-,N/A,,Overcast,30,2013-12-01 10:58:00
5:58 AM,42.3,37.6,83,30.26,10.0,North,2.3,-,N/A,,Partly Cloudy,360,2013-12-01 11:58:00
6:58 AM,40.8,37.0,86,30.27,10.0,ENE,4.6,-,N/A,,Partly Cloudy,70,2013-12-01 12:58:00
7:58 AM,47.7,36.5,65,30.27,10.0,North,3.5,-,N/A,,Overcast,350,2013-12-01 13:58:00
8:58 AM,50.2,36.3,59,30.27,10.0,East,3.5,-,N/A,,Overcast,80,2013-12-01 14:58:00
9:58 AM,55.4,38.1,52,30.25,10.0,Variable,1.2,-,N/A,,Scattered Clouds,0,2013-12-01 15:58:00
10:58 AM,61.0,42.4,51,30.22,10.0,Calm,Calm,-,N/A,,Clear,0,2013-12-01 16:58:00
11:58 AM,64.9,43.2,45,30.19,10.0,West,6.9,-,N/A,,Clear,280,2013-12-01 17:58:00
12:58 PM,65.5,43.2,44,30.15,10.0,NW,6.9,-,N/A,,Partly Cloudy,320,2013-12-01 18:58:00
1:58 PM,65.3,43.9,46,30.12,10.0,NNW,3.5,-,N/A,,Clear,340,2013-12-01 19:58:00
2:58 PM,64.4,43.9,47,30.10,10.0,North,5.8,-,N/A,,Clear,350,2013-12-01 20:58:00
3:58 PM,63.3,44.8,51,30.09,10.0,North,2.3,-,N/A,,Partly Cloudy,350,2013-12-01 21:58:00
4:58 PM,57.0,45.5,65,30.08,10.0,Calm,Calm,-,N/A,,Partly Cloudy,0,2013-12-01 22:58:00
5:58 PM,53.1,45.3,75,30.09,10.0,Calm,Calm,-,N/A,,Clear,0,2013-12-01 23:58:00
6:58 PM,52.7,45.5,76,30.08,10.0,SSW,1.2,-,N/A,,Partly Cloudy,210,2013-12-02 00:58:00
7:58 PM,50.0,44.8,82,30.07,10.0,Calm,Calm,-,N/A,,Partly Cloudy,0,2013-12-02 01:58:00
8:58 PM,50.5,44.6,80,30.06,10.0,Calm,Calm,-,N/A,,Mostly Cloudy,0,2013-12-02 02:58:00
9:58 PM,49.1,44.6,84,30.06,10.0,Calm,Calm,-,N/A,,Scattered Clouds,0,2013-12-02 03:58:00
10:58 PM,48.2,44.2,86,30.04,10.0,Calm,Calm,-,N/A,,Overcast,0,2013-12-02 04:58:00
11:58 PM,48.6,44.2,85,30.04,10.0,North,2.3,-,N/A,,Mostly Cloudy,360,2013-12-02 05:58:00